Weather History for KEOK - March, 2014

Change the Weather History Date:

Monday, March 17, 2014

  Actual Average Record
Temperature  
Mean Temperature 26 °F -  
Max Temperature 41 °F 51 °F 80 °F (2012)
Min Temperature 12 °F 31 °F 10 °F (1941)
Degree Days  
Heating Degree Days 38    
Moisture  
Dew Point 17 °F    
Average Humidity 64    
Maximum Humidity 93    
Minimum Humidity 36    
Precipitation  
Precipitation 0.00 in - - ()
Sea Level Pressure  
Sea Level Pressure 29.87 in    
Wind  
Wind Speed 6 mph (SSE)    
Max Wind Speed 13 mph    
Max Gust Speed 16 mph    
Visibility 10 miles    
Events      
Averages and records for this station are not official NWS values.
T = Trace of Precipitation, MM = Missing Value Source: NWS Daily Summary

Daily Weather History Graph

Daily Weather History Graph

Search for Another Location

Airport or City:

Trip Planner

Search our weather history database for the weather conditions in past years. The results will help you decide how hot, cold, wet, or windy it might be!

Date:

Astronomy

Mar. 17, 2014 Rise Set
Actual Time 7:13 AM CDT 7:14 PM CDT
Civil Twilight 6:46 AM CDT 7:41 PM CDT
Nautical Twilight 6:15 AM CDT 8:13 PM CDT
Astronomical Twilight 5:42 AM CDT 8:45 PM CDT
Moon 8:32 PM CDT (3/17) 7:29 AM CDT (3/17)
Length of Visible Light 12h 55m
Length of Day
12h 00m
Full, 99% of the Moon is Illuminated
Mar 17
Full
Mar 23
Last Quarter
Mar 30
New
Apr 7
First Quarter
Apr 15
Full

Hourly Weather History & Observations

Time (CDT) Temp. Windchill Dew Point Humidity Pressure Visibility Wind Dir Wind Speed Gust Speed Precip Events Conditions
12:15 AM 21.2 °F 12.6 °F 12.2 °F 68% 30.11 in 10.0 mi ENE 6.9 mph - N/A   Clear
12:35 AM 21.2 °F 13.6 °F 12.2 °F 68% 30.12 in 10.0 mi NE 5.8 mph 11.5 mph N/A   Clear
1:15 AM 19.4 °F 10.4 °F 12.2 °F 74% 30.10 in 10.0 mi ENE 6.9 mph - N/A   Clear
1:35 AM 19.4 °F 10.4 °F 12.2 °F 74% 30.08 in 10.0 mi ENE 6.9 mph - N/A   Clear
1:55 AM 19.4 °F 10.4 °F 12.2 °F 74% 30.08 in 10.0 mi ENE 6.9 mph - N/A   Clear
2:15 AM 19.4 °F 9.5 °F 12.2 °F 74% 30.07 in 10.0 mi ENE 8.1 mph - N/A   Clear
2:35 AM 17.6 °F 8.2 °F 12.2 °F 79% 30.06 in 10.0 mi ENE 6.9 mph - N/A   Clear
2:55 AM 17.6 °F 7.3 °F 12.2 °F 79% 30.05 in 10.0 mi East 8.1 mph - N/A   Clear
3:15 AM 17.6 °F 8.2 °F 12.2 °F 79% 30.04 in 10.0 mi East 6.9 mph - N/A   Clear
3:35 AM 17.6 °F 6.4 °F 12.2 °F 79% 30.02 in 10.0 mi East 9.2 mph - N/A   Clear
3:55 AM 15.8 °F 5.1 °F 12.2 °F 86% 30.02 in 10.0 mi East 8.1 mph - N/A   Clear
4:15 AM 17.6 °F 10.7 °F 12.2 °F 79% 30.02 in 10.0 mi East 4.6 mph - N/A   Clear
4:35 AM 17.6 °F 10.7 °F 12.2 °F 79% 30.00 in 10.0 mi East 4.6 mph - N/A   Clear
4:55 AM 15.8 °F 10.2 °F 14.0 °F 93% 30.00 in 10.0 mi East 3.5 mph - N/A   Clear
5:15 AM 15.8 °F - 12.2 °F 86% 30.00 in 10.0 mi Calm Calm - N/A   Clear
5:35 AM 14.0 °F - 12.2 °F 93% 29.99 in 10.0 mi Calm Calm - N/A   Clear
5:55 AM 14.0 °F - 12.2 °F 93% 29.99 in 10.0 mi Calm Calm - N/A   Clear
6:15 AM 14.0 °F - 12.2 °F 93% 30.00 in 10.0 mi Calm Calm - N/A   Clear
6:35 AM 14.0 °F - 12.2 °F 93% 29.99 in 10.0 mi Calm Calm - N/A   Clear
6:55 AM 14.0 °F - 12.2 °F 93% 29.98 in 10.0 mi Calm Calm - N/A   Clear
7:15 AM 12.2 °F - 10.4 °F 92% 29.98 in 10.0 mi Calm Calm - N/A   Clear
7:35 AM 12.2 °F - 10.4 °F 92% 29.98 in 10.0 mi Calm Calm - N/A   Clear
7:55 AM 14.0 °F 6.5 °F 12.2 °F 93% 29.96 in 10.0 mi ESE 4.6 mph - N/A   Clear
8:15 AM 15.8 °F 8.6 °F 14.0 °F 93% 29.96 in 10.0 mi ESE 4.6 mph - N/A   Clear
8:35 AM 19.4 °F 12.8 °F 14.0 °F 80% 29.96 in 10.0 mi SE 4.6 mph - N/A   Clear
8:55 AM 21.2 °F 14.9 °F 15.8 °F 80% 29.96 in 10.0 mi ESE 4.6 mph - N/A   Clear
9:15 AM 23.0 °F 13.9 °F 14.0 °F 68% 29.95 in 10.0 mi SSE 8.1 mph - N/A   Clear
9:35 AM 23.0 °F 13.9 °F 14.0 °F 68% 29.95 in 10.0 mi SSE 8.1 mph - N/A   Clear
9:55 AM 24.8 °F 16.9 °F 15.8 °F 69% 29.95 in 10.0 mi South 6.9 mph - N/A   Clear
10:15 AM 24.8 °F 17.9 °F 15.8 °F 69% 29.94 in 10.0 mi SSW 5.8 mph - N/A   Clear
10:35 AM 26.6 °F 21.2 °F 15.8 °F 64% 29.94 in 10.0 mi Variable 4.6 mph - N/A   Clear
10:55 AM 26.6 °F 19.1 °F 15.8 °F 64% 29.93 in 10.0 mi South 6.9 mph - N/A   Clear
11:15 AM 28.4 °F 20.4 °F 17.6 °F 64% 29.93 in 10.0 mi SSW 8.1 mph - N/A   Clear
11:35 AM 28.4 °F 22.2 °F 17.6 °F 64% 29.92 in 10.0 mi SSE 5.8 mph - N/A   Clear
11:55 AM 30.2 °F 23.4 °F 17.6 °F 60% 29.91 in 10.0 mi South 6.9 mph - N/A   Clear
12:15 PM 30.2 °F 22.6 °F 17.6 °F 60% 29.89 in 10.0 mi South 8.1 mph - N/A   Clear
12:35 PM 32.0 °F 25.6 °F 19.4 °F 60% 29.87 in 10.0 mi South 6.9 mph - N/A   Clear
12:55 PM 32.0 °F 24.2 °F 19.4 °F 60% 29.87 in 10.0 mi South 9.2 mph - N/A   Clear
1:15 PM 33.8 °F 27.0 °F 21.2 °F 60% 29.86 in 10.0 mi SSW 8.1 mph - N/A   Clear
1:35 PM 33.8 °F 27.7 °F 21.2 °F 60% 29.84 in 10.0 mi South 6.9 mph 13.8 mph N/A   Clear
1:55 PM 35.6 °F 28.0 °F 23.0 °F 60% 29.82 in 10.0 mi South 10.4 mph - N/A   Clear
2:15 PM 37.4 °F 29.3 °F 23.0 °F 56% 29.80 in 10.0 mi SSW 12.7 mph - N/A   Clear
2:35 PM 37.4 °F 32.1 °F 23.0 °F 56% 29.79 in 10.0 mi Variable 6.9 mph 12.7 mph N/A   Clear
2:55 PM 39.2 °F 34.2 °F 23.0 °F 52% 29.79 in 10.0 mi South 6.9 mph 13.8 mph N/A   Clear
3:15 PM 39.2 °F 33.6 °F 23.0 °F 52% 29.77 in 10.0 mi South 8.1 mph - N/A   Clear
3:35 PM 39.2 °F 32.0 °F 24.8 °F 56% 29.75 in 10.0 mi South 11.5 mph - N/A   Clear
3:55 PM 41.0 °F 35.8 °F 24.8 °F 53% 29.74 in 10.0 mi South 8.1 mph - N/A   Clear
4:15 PM 41.0 °F 35.2 °F 26.6 °F 57% 29.73 in 10.0 mi South 9.2 mph 15.0 mph N/A   Clear
4:35 PM 41.0 °F 36.4 °F 24.8 °F 53% 29.73 in 10.0 mi South 6.9 mph - N/A   Clear
4:55 PM 41.0 °F 36.4 °F 24.8 °F 53% 29.73 in 10.0 mi South 6.9 mph - N/A   Clear
5:15 PM 41.0 °F 35.8 °F 23.0 °F 49% 29.73 in 10.0 mi SSW 8.1 mph - N/A   Clear
5:35 PM 41.0 °F 35.8 °F 17.6 °F 39% 29.72 in 10.0 mi South 8.1 mph - N/A   Clear
5:55 PM 41.0 °F 36.4 °F 17.6 °F 39% 29.72 in 10.0 mi SSE 6.9 mph - N/A   Clear
6:15 PM 41.0 °F 36.4 °F 17.6 °F 39% 29.71 in 10.0 mi South 6.9 mph - N/A   Clear
6:35 PM 41.0 °F 35.2 °F 15.8 °F 36% 29.71 in 10.0 mi South 9.2 mph - N/A   Clear
6:55 PM 41.0 °F 35.8 °F 17.6 °F 39% 29.71 in 10.0 mi SSE 8.1 mph 15.0 mph N/A   Clear
7:15 PM 41.0 °F 36.4 °F 17.6 °F 39% 29.72 in 10.0 mi SSE 6.9 mph - N/A   Clear
7:35 PM 41.0 °F 37.1 °F 17.6 °F 39% 29.72 in 10.0 mi SSE 5.8 mph - N/A   Clear
7:55 PM 41.0 °F 35.8 °F 17.6 °F 39% 29.72 in 10.0 mi SSE 8.1 mph - N/A   Clear
8:15 PM 39.2 °F 33.6 °F 19.4 °F 45% 29.71 in 10.0 mi SE 8.1 mph - N/A   Clear
8:35 PM 39.2 °F 33.6 °F 21.2 °F 49% 29.72 in 10.0 mi SSE 8.1 mph - N/A   Clear
8:55 PM 39.2 °F 33.0 °F 21.2 °F 49% 29.72 in 10.0 mi SSE 9.2 mph - N/A   Clear
9:15 PM 39.2 °F 32.5 °F 21.2 °F 49% 29.71 in 10.0 mi SSE 10.4 mph - N/A   Clear
9:35 PM 39.2 °F 33.0 °F 19.4 °F 45% 29.71 in 10.0 mi SSE 9.2 mph 15.0 mph N/A   Partly Cloudy
9:55 PM 37.4 °F 29.8 °F 19.4 °F 48% 29.71 in 10.0 mi SSE 11.5 mph - N/A   Partly Cloudy
10:10 PM 37.4 °F 30.3 °F 19.4 °F 48% 29.71 in 10.0 mi SSE 10.4 mph - N/A   Clear
10:35 PM 37.4 °F 30.8 °F 19.4 °F 48% 29.72 in 10.0 mi SSE 9.2 mph - N/A   Clear
10:55 PM 37.4 °F 30.8 °F 19.4 °F 48% 29.71 in 10.0 mi SE 9.2 mph - N/A   Clear
11:15 PM 37.4 °F 30.3 °F 19.4 °F 48% 29.71 in 10.0 mi SSE 10.4 mph 16.1 mph N/A   Clear
11:35 PM 37.4 °F 30.8 °F 19.4 °F 48% 29.71 in 10.0 mi SSE 9.2 mph 15.0 mph N/A   Clear
11:55 PM 37.4 °F 30.8 °F 19.4 °F 48% 29.72 in 10.0 mi SSE 9.2 mph - N/A   Clear